Location: Lecco
(45.8566°N, 9.3977°E)
Time: 03:28:53
(UTC+02:00)

Transit 4A - Pass Details

Date: 21 August 2020
Orbit: 863 x 982 km, 66.8° (Epoch: 23 September)

Event Time Altitude Azimuth Distance (km) Brightness Sun altitude
Rises 16:21:05 0° 328° (NNW) 3,660 11.1 39.7°
Reaches altitude 10° 16:23:39 10° 331° (NNW) 2,722 10.5 39.3°
Maximum altitude 16:30:01 68° 54° (NE) 1,056 8.5 38.3°
Drops below altitude 10° 16:36:24 10° 137° (SE) 2,728 10.3 37.3°
Sets 16:38:59 0° 140° (SE) 3,668 10.9 36.8°
